Flag for Canada Weather past 2 weeks in Hay River, Northwest Territories, Canada

Now
1 °F

Overcast.


Feels Like: -16 °F
Forecast: -14 / 3 °F
Wind: 13 mph from Northwest

Location: Hay River

Current Time: Jan 26, 2015 at 11:47:42 AM

Latest Report: Jan 26, 2015 at 11:00 AM


Visibility: 15 mi

Pressure: 29.94 "Hg

Humidity: 78%

Dew point: -4 °F

Location of Hay RiverLocation

Historic Weather in Hay River — Graph

°F

Hay River temperature yesterday

Maximum temperature yesterday: 7 °F (at 5:00 AM)
Minimum temperature yesterday: 3 °F (at 12:00 AM)
Average temperature yesterday: 6 °F

Past Weeks' High & Low Weather Summary

 TemperatureHumidityPressure
High27 °F (Jan 21, 3:00 PM)93% (Jan 21, 10:00 AM)30.37 "Hg (Jan 21, 10:00 AM)
Low-18 °F (Jan 15, 1:00 AM)69% (Jan 15, 5:00 AM)29.18 "Hg (Jan 16, 10:00 AM)
Average2 °F81%29.86 "Hg
* Reported Jan 11 10:00 AM — Jan 26 10:00 AM, Hay River, Weather by CustomWeather, © 2014

Note: Actual official high and low records may vary slightly from our data, if they occured in-between our weather recording intervals... More about our weather records

Advertising

Hay River weather history for previous 24 hours

 ConditionsComfort  
Time TempWeatherWind HumidityBarometerVisibility
10:00 AM
Jan 26
0 °FPartly sunny.12 mph84%29.90 "Hg15 mi
9:00 AM0 °FPassing clouds.10 mph84%29.87 "Hg15 mi
8:00 AM-2 °FPassing clouds.10 mph77%29.86 "Hg15 mi
7:00 AM-2 °FPassing clouds.10 mph84%29.85 "Hg15 mi
6:00 AM0 °FPassing clouds.8 mph84%29.83 "Hg15 mi
5:00 AM1 °FPassing clouds.8 mph85%29.81 "Hg15 mi
4:00 AM5 °FPassing clouds.8 mph85%29.79 "Hg15 mi
3:00 AM5 °FPassing clouds.8 mph85%29.79 "Hg15 mi
2:00 AM5 °FPassing clouds.5 mph85%29.78 "Hg15 mi
1:00 AM3 °FPassing clouds.5 mph85%29.77 "Hg15 mi
12:00 AM-2 °FPassing clouds.No wind84%29.77 "Hg15 mi
11:00 PM
Jan 25
3 °FPassing clouds.2 mph85%29.76 "Hg15 mi
10:00 PM5 °FPassing clouds.2 mph85%29.76 "Hg15 mi
9:00 PM7 °FLight snow. Low clouds.5 mph85%29.77 "Hg15 mi
8:00 PM7 °FLight mixture of precip. Mostly cloudy.2 mph85%29.78 "Hg12 mi
7:00 PM7 °FLight mixture of precip. Mostly cloudy.3 mph85%29.78 "Hg8 mi
6:00 PM7 °FPartly cloudy.6 mph85%29.80 "Hg15 mi
5:00 PM5 °FLight snow. Mostly cloudy.7 mph85%29.78 "Hg8 mi
4:00 PM5 °FMore clouds than sun.8 mph92%29.77 "Hg15 mi
3:00 PM5 °FLight snow. Mostly cloudy.8 mph85%29.76 "Hg15 mi
2:00 PM5 °FLight snow. More clouds than sun.8 mph85%29.74 "Hg12 mi
1:00 PM5 °FLight snow. Partly sunny.9 mph85%29.72 "Hg5 mi
12:00 PM5 °FLight snow. Ice fog.8 mph85%29.69 "Hg2 mi
11:00 AM7 °FLight snow. Low clouds.7 mph85%29.66 "Hg2 mi
Weather by CustomWeather, © 2014

See weather overviewHow to use our weather pages